This demonstration page uses our WeatherBlox Daily Observations layout. Learn more.

Left ArrowRight Arrow

47.50024, -111.30081

Hourly Observations for January 14, 2018

Temp ( °F °C ) Dew Point ( °F °C ) Humidity (%) Winds ( mph kmh ) Pressure ( in mb ) Visibility ( mi km ) Precip ( " mm )
12:53 am 00:53 Clear 31 -0.6 24 -4.4 76 76 SW 14 22 30.38 1029 10 16 0.00 0.00
1:53 am 01:53 Clear 30 -1.1 23 -5 75 75 SW 13 20 30.40 1029 10 16 0.00 0.00
2:53 am 02:53 Clear 32 0 24 -4.4 73 73 SW 14 22 30.40 1030 10 16 0.00 0.00
3:53 am 03:53 Clear 30 -1.1 23 -5 75 75 WSW 13 20 30.41 1030 10 16 0.00 0.00
4:53 am 04:53 Clear 29 -1.7 22 -5.6 75 75 SW 9 15 30.42 1030 10 16 0.00 0.00
5:53 am 05:53 Clear 30 -1.1 23 -5 75 75 SW 12 19 30.42 1030 10 16 0.00 0.00
6:53 am 06:53 Clear 30 -1.1 23 -5 75 75 SSW 12 19 30.43 1030 10 16 0.00 0.00
7:53 am 07:53 Clear 30 -1.1 23 -5 75 75 SSW 13 20 30.44 1031 10 16 0.00 0.00
8:53 am 08:53 Mostly Sunny 32 0 25 -3.9 75 75 SSW 10 17 30.44 1031 10 16 0.00 0.00
9:53 am 09:53 Mostly Cloudy 32 0 25 -3.9 75 75 NNE 3 6 30.48 1032 10 16 0.00 0.00
10:53 am 10:53 Cloudy 37 2.8 27 -2.8 67 67 NNE 9 15 30.49 1033 10 16 0.00 0.00
11:53 am 11:53 Cloudy 34 1.1 26 -3.3 73 73 NE 7 11 30.50 1033 10 16 0.00 0.00
12:53 pm 12:53 Cloudy 34 1.1 26 -3.3 73 73 NE 5 7 30.50 1033 10 16 0.00 0.00
1:53 pm 13:53 Cloudy 34 1.1 27 -2.8 76 76 NE 6 9 30.51 1033 10 16 0.00 0.00
2:53 pm 14:53 Cloudy 33 0.6 26 -3.3 75 75 NE 8 13 30.51 1033 10 16 0.00 0.00
3:53 pm 15:53 Cloudy 30 -1.1 25 -3.9 82 82 NE 12 19 30.55 1035 10 16 0.00 0.00
4:41 pm 16:41 Cloudy 29 -1.7 25 -3.9 85 85 ENE 12 19 30.53 1034 10 16 0.00 0.00
4:53 pm 16:53 Cloudy 29 -1.7 24 -4.4 82 82 ENE 12 19 30.58 1036 10 16 0.00 0.00
5:53 pm 17:53 Cloudy 28 -2.2 24 -4.4 85 85 NE 6 9 30.59 1036 10 16 0.00 0.00
6:53 pm 18:53 Cloudy 28 -2.2 23 -5 81 81 NE 7 11 30.61 1037 10 16 0.00 0.00
7:12 pm 19:12 Cloudy 27 -2.8 24 -4.4 89 89 ENE 12 19 30.62 1037 10 16 0.00 0.00
7:53 pm 19:53 Cloudy 25 -3.9 22 -5.6 88 88 ENE 14 22 30.64 1038 10 16 0.00 0.00
8:51 pm 20:51 Cloudy with Light Freezing Rain 25 -4 21 -6 86 86 E 12 19 30.68 1039 4 6 0.00 0.03
8:53 pm 20:53 Cloudy with Light Freezing Rain 25 -3.9 22 -5.6 88 88 E 12 19 30.66 1038 4 6 0.00 0.03
9:02 pm 21:02 Cloudy with Light Snow 24 -4.4 22 -5.6 91 91 ENE 10 17 30.68 1039 3 5 0.00 0.03
9:30 pm 21:30 Cloudy with Light Snow 24 -4.4 22 -5.6 91 91 E 10 17 30.71 1040 3 4 0.00 0.03
9:41 pm 21:41 Cloudy with Mist and Fog 24 -4.4 22 -5.6 91 91 ENE 13 20 30.71 1040 4 6 0.00 0.03
9:53 pm 21:53 Cloudy 24 -4.4 21 -6.1 88 88 ENE 12 19 30.68 1039 8 13 0.00 0.03
10:05 pm 22:05 Cloudy 24 -4.4 21 -6.1 88 88 ENE 12 19 30.71 1040 7 11 0.00 0.00
10:40 pm 22:40 Cloudy with Mist and Fog 24 -4.4 22 -5.6 91 91 ENE 13 20 30.71 1040 4 6 0.00 0.00
10:53 pm 22:53 Cloudy with Mist and Fog 23 -5 21 -6.1 92 92 NE 12 19 30.69 1039 5 8 0.00 0.00
11:36 pm 23:36 Cloudy with Mist and Fog 23 -5 21 -6.1 92 92 ENE 9 15 30.77 1042 5 8 0.00 0.00
11:53 pm 23:53 Cloudy 23 -5 21 -6.1 92 92 ENE 7 11 30.71 1040 2 3 0.00 0.00

Powered by AerisWeather